sat.trackr.live / text

‹ back to catalog

STARLINK-5250

NORAD 54200 · 2022-141AV

PAYLOAD ACTIVE UNKNOWN

§ Identity

Operator
Country
US
Launch date
2022-10-28
Launch site
AFWTR
Launch vehicle
Mass (kg)
RCS (m²)

Purposes: comms

External: N2YO · Heavens-Above · Gunter

§ Orbital elements

Epoch: 2026-05-24T22:45:27.720000Z

Period
95.44 min
Inclination
53.2149°
Eccentricity
0.0001237
Mean motion
15.08838741 rev/d
Perigee alt
538.9 km
Apogee alt
540.6 km
Semi-major
6,917.9 km
B*
7.1902e-5
RAAN
11.5467°
Arg perigee
97.7225°
Mean anomaly
262.3907°
Rev number
19,751

§ Raw data

STARLINK-52501 54200U 22141AV  26144.94823750  .00000857  00000+0  71902-4 0  99982 54200  53.2149  11.5467 0001237  97.7225 262.3907 15.08838741197513

JSON: /api/v1/satellites/54200 · /tle

For live sub-satellite position, see the globe view (requires WebGL).

§ Visibility from observer

Set your observer location to see the next 7 days of passes ≥ 10°. The values pass through the URL so the page stays shareable.

No JS? Fill the form by hand. The geolocation button needs JavaScript.